TimeEDT,TemperatureF,Dew PointF,Humidity,Sea Level PressureIn,VisibilityMPH,Wind Direction,Wind SpeedMPH,Gust SpeedMPH,PrecipitationIn,Events,Conditions,WindDirDegrees,DateUTC
12:54 AM,75.0,69.1,82,30.16,10.0,Calm,Calm,-,N/A,,Clear,0,2013-07-05 04:54:00
1:54 AM,73.9,69.1,85,30.16,10.0,Calm,Calm,-,N/A,,Clear,0,2013-07-05 05:54:00
2:54 AM,73.0,69.1,87,30.16,10.0,ENE,5.8,-,N/A,,Clear,60,2013-07-05 06:54:00
3:54 AM,73.0,69.1,87,30.16,10.0,ENE,3.5,-,N/A,,Mostly Cloudy,70,2013-07-05 07:54:00
4:54 AM,71.1,68.0,90,30.16,10.0,Calm,Calm,-,N/A,,Clear,0,2013-07-05 08:54:00
5:54 AM,71.1,68.0,90,30.17,10.0,Calm,Calm,-,N/A,,Clear,0,2013-07-05 09:54:00
6:54 AM,73.0,69.1,87,30.17,10.0,Calm,Calm,-,N/A,,Clear,0,2013-07-05 10:54:00
7:54 AM,77.0,70.0,79,30.17,10.0,ESE,3.5,-,N/A,,Clear,120,2013-07-05 11:54:00
8:54 AM,79.0,70.0,74,30.17,10.0,East,4.6,-,N/A,,Clear,80,2013-07-05 12:54:00
9:54 AM,82.0,71.1,69,30.16,10.0,East,8.1,-,N/A,,Clear,100,2013-07-05 13:54:00
10:54 AM,82.9,70.0,65,30.15,10.0,South,5.8,-,N/A,,Scattered Clouds,170,2013-07-05 14:54:00
11:54 AM,84.0,71.1,65,30.14,10.0,SE,8.1,-,N/A,,Mostly Cloudy,130,2013-07-05 15:54:00
12:54 PM,87.1,71.1,59,30.14,10.0,SE,10.4,-,N/A,,Mostly Cloudy,140,2013-07-05 16:54:00
1:54 PM,87.1,70.0,57,30.12,10.0,Variable,4.6,-,N/A,,Mostly Cloudy,0,2013-07-05 17:54:00
2:54 PM,87.1,68.0,53,30.11,10.0,SSE,6.9,17.3,0.00,,Mostly Cloudy,160,2013-07-05 18:54:00
3:54 PM,82.0,70.0,67,30.09,10.0,WNW,8.1,-,0.00,,Mostly Cloudy,290,2013-07-05 19:54:00
4:54 PM,81.0,72.0,74,30.10,9.0,Calm,Calm,-,0.00,Rain,Light Rain,0,2013-07-05 20:54:00
4:59 PM,78.8,71.6,78,30.10,1.5,Calm,Calm,-,0.05,Rain,Heavy Rain,0,2013-07-05 20:59:00
5:09 PM,80.6,73.4,79,30.10,4.0,ESE,4.6,-,0.12,Rain,Light Rain,120,2013-07-05 21:09:00
5:54 PM,78.1,72.0,81,30.09,3.0,Calm,Calm,-,0.27,Rain,Heavy Rain,0,2013-07-05 21:54:00
6:54 PM,80.1,75.0,85,30.08,10.0,Calm,Calm,-,0.01,,Clear,0,2013-07-05 22:54:00
7:54 PM,79.0,75.0,88,30.08,10.0,Calm,Calm,-,N/A,,Partly Cloudy,0,2013-07-05 23:54:00
8:54 PM,77.0,73.9,90,30.09,10.0,Calm,Calm,-,N/A,,Mostly Cloudy,0,2013-07-06 00:54:00
9:54 PM,75.0,73.0,94,30.11,10.0,Calm,Calm,-,0.00,,Clear,0,2013-07-06 01:54:00
10:54 PM,73.9,72.0,93,30.11,10.0,Calm,Calm,-,N/A,,Partly Cloudy,0,2013-07-06 02:54:00
11:54 PM,73.9,72.0,93,30.12,8.0,Calm,Calm,-,N/A,,Scattered Clouds,0,2013-07-06 03:54:00